Flag for Uruguay Weather past 2 weeks in Melo, Uruguay

Now
59 °F

Passing clouds.


Feels Like: 59 °F
Forecast: 61 / 67 °F
Wind: 2 mph from Northwest

Location: Pelotas Airport

Current Time: Jul 31, 2014 at 5:42:39 AM

Latest Report: Jul 31, 2014 at 5:00 AM


Visibility: 4 mi

Pressure: 30.07 "Hg

Humidity: 94%

Dew point: 57 °F

Location of MeloLocation

Historic Weather in Melo — Graph

°F

Melo temperature yesterday

Maximum temperature yesterday: 72 °F (at 3:00 PM)
Minimum temperature yesterday: 59 °F (at 11:00 PM)
Average temperature yesterday: 64 °F

Past Weeks' High & Low Weather Summary

 TemperatureHumidityPressure
High72 °F (Jul 22, 2:00 PM)100% (Jul 16, 7:00 AM)30.48 "Hg (Jul 16, 7:00 AM)
Low36 °F (Jul 28, 7:00 AM)41% (Jul 25, 2:00 PM)29.65 "Hg (Jul 23, 4:00 PM)
Average57 °F86%30.11 "Hg
* Reported Jul 16 5:00 AM — Jul 31 5:00 AM, Melo, Weather by CustomWeather, © 2014

Note: Actual official high and low records may vary slightly from our data, if they occured in-between our weather recording intervals... More about our weather records

Advertising

Melo weather history for previous 24 hours

 ConditionsComfort  
Time TempWeatherWind HumidityBarometerVisibility
5:00 AM
Jul 31
59 °FPassing clouds.2 mph94%30.07 "Hg4 mi
4:00 AM59 °FPassing clouds.No wind100%30.09 "Hg4 mi
3:00 AM59 °FPassing clouds.No wind100%30.09 "Hg4 mi
2:00 AM57 °FFog.3 mph100%30.09 "Hg3 mi
1:00 AM57 °FPassing clouds.2 mph100%30.12 "Hg4 mi
12:00 AM57 °FClear.3 mph100%30.09 "Hg5 mi
11:00 PM
Jul 30
59 °FClear.No wind94%30.09 "Hg5 mi
10:00 PM61 °FClear.1 mph94%30.12 "Hg10 mi
8:00 PM64 °FClear.3 mph88%30.12 "Hg10 mi
7:00 PM64 °FClear.1 mph88%30.09 "Hg10 mi
6:00 PM68 °FClear.5 mph83%30.09 "Hg10 mi
5:00 PM70 °FClear.6 mph78%30.09 "Hg10 mi
4:00 PM72 °FSunny.3 mph78%30.09 "Hg10 mi
3:00 PM72 °FSunny.3 mph78%30.09 "Hg10 mi
2:00 PM70 °FSunny.6 mph83%30.12 "Hg10 mi
1:00 PM68 °FSunny.6 mph83%30.15 "Hg10 mi
12:00 PM64 °FSunny.5 mph94%30.18 "Hg10 mi
11:00 AM63 °FFog.5 mph100%30.21 "Hg3 mi
10:00 AM61 °FLight rain. Fog.5 mph100%30.21 "Hg3 mi
9:00 AM61 °FLight rain. Fog.3 mph100%30.21 "Hg1 mi
8:00 AM61 °FLight rain. Fog.7 mph100%N/A1 mi
7:00 AM61 °FLight rain. Mostly cloudy.2 mph94%30.15 "Hg6 mi
6:00 AM61 °FClear.No wind94%30.15 "Hg10 mi
5:00 AM61 °FClear.2 mph94%30.12 "Hg10 mi
Weather by CustomWeather, © 2014

See weather overviewHow to use our weather pages